When you browse on this site, cookies collect data to enhance your experience and personalize the content and advertising you see.
Visit our Privacy Policy to learn more. By continuing to use the site, you agree to this use of cookies and data.
  • In Schweiz
  • Länderverzeichnis
  • Für 7 Tage
  • Wassertemperatur
  • Satellitenkarten
  • Wetterkarte
  • Widgets
  • user-avatar
    Anmelden

    Stündliche Wetter Hoyerswerda

    Heute, 24 Juli, Mittwoch

    Zeit Temperatur Niederschläge Wind Luftdruck Luftfeuchtigkeit
    00:00 +21°C° 0 mm 1 m/S 754 mmHg 80%
    01:00 +20°C° 0 mm 1 m/S 754 mmHg 85%
    02:00 +20°C° 0 mm 1 m/S 754 mmHg 86%
    03:00 +18°C° 0 mm 0 m/S 754 mmHg 88%
    04:00 +17°C° 0 mm 0 m/S 754 mmHg 90%
    05:00 +19°C° 0 mm 0 m/S 754 mmHg 84%
    06:00 +21°C° 0 mm 0 m/S 754 mmHg 78%
    07:00 +22°C° 0 mm 0 m/S 754 mmHg 71%
    08:00 +26°C° 0 mm 1 m/S 754 mmHg 63%
    09:00 +28°C° 0 mm 1 m/S 754 mmHg 54%
    10:00 +30°C° 0 mm 1 m/S 754 mmHg 46%
    11:00 +30°C° 0 mm 1 m/S 754 mmHg 41%
    12:00 +31°C° 0 mm 1 m/S 753 mmHg 36%
    13:00 +32°C° 0 mm 1 m/S 753 mmHg 32%
    14:00 +32°C° 0 mm 2 m/S 753 mmHg 31%
    15:00 +32°C° 0 mm 2 m/S 753 mmHg 30%
    16:00 +34°C° 0 mm 2 m/S 753 mmHg 29%
    17:00 +31°C° 0 mm 2 m/S 752 mmHg 35%
    18:00 +29°C° 0 mm 2 m/S 752 mmHg 41%
    19:00 +28°C° 0 mm 2 m/S 752 mmHg 47%
    20:00 +26°C° 0 mm 2 m/S 752 mmHg 51%
    21:00 +25°C° 0 mm 2 m/S 753 mmHg 54%
    22:00 +23°C° 0 mm 1 m/S 753 mmHg 58%
    23:00 +22°C° 0 mm 1 m/S 753 mmHg 61%

    Morgen, 25 Juli, Donnerstag

    Zeit Temperatur Niederschläge Wind Luftdruck Luftfeuchtigkeit
    00:00 +22°C° 0 mm 1 m/S 753 mmHg 63%
    01:00 +21°C° 0 mm 1 m/S 753 mmHg 65%
    02:00 +21°C° 0 mm 1 m/S 753 mmHg 66%
    03:00 +20°C° 0 mm 1 m/S 753 mmHg 66%
    04:00 +20°C° 0 mm 1 m/S 753 mmHg 67%
    05:00 +22°C° 0 mm 1 m/S 753 mmHg 63%
    06:00 +23°C° 0 mm 1 m/S 753 mmHg 59%
    07:00 +23°C° 0 mm 0 m/S 753 mmHg 55%
    08:00 +27°C° 0 mm 1 m/S 753 mmHg 49%
    09:00 +29°C° 0 mm 1 m/S 753 mmHg 43%
    10:00 +31°C° 0 mm 1 m/S 754 mmHg 38%
    11:00 +32°C° 0 mm 1 m/S 753 mmHg 35%
    12:00 +34°C° 0 mm 2 m/S 753 mmHg 32%
    13:00 +35°C° 0 mm 2 m/S 753 mmHg 29%
    14:00 +35°C° 0 mm 2 m/S 753 mmHg 29%
    15:00 +35°C° 0 mm 2 m/S 752 mmHg 30%
    16:00 +35°C° 0 mm 2 m/S 752 mmHg 30%
    17:00 +33°C° 0 mm 3 m/S 752 mmHg 36%
    18:00 +30°C° 0 mm 3 m/S 752 mmHg 42%
    19:00 +28°C° 0 mm 3 m/S 752 mmHg 48%
    20:00 +27°C° 0 mm 3 m/S 752 mmHg 54%
    21:00 +25°C° 0 mm 3 m/S 752 mmHg 59%
    22:00 +23°C° 0 mm 2 m/S 752 mmHg 65%
    23:00 +23°C° 0 mm 2 m/S 752 mmHg 68%

    übermorgen, 26 Juli, Freitag

    Zeit Temperatur Niederschläge Wind Luftdruck Luftfeuchtigkeit
    00:00 +21°C° 0 mm 2 m/S 752 mmHg 71%
    01:00 +22°C° 0 mm 1 m/S 752 mmHg 74%
    02:00 +20°C° 0 mm 2 m/S 752 mmHg 77%
    03:00 +20°C° 0 mm 2 m/S 752 mmHg 80%
    04:00 +19°C° 0 mm 2 m/S 752 mmHg 82%
    05:00 +20°C° 0 mm 2 m/S 752 mmHg 78%
    06:00 +23°C° 0 mm 2 m/S 752 mmHg 74%
    07:00 +24°C° 0 mm 3 m/S 752 mmHg 70%
    08:00 +25°C° 0 mm 3 m/S 752 mmHg 61%
    09:00 +27°C° 0 mm 3 m/S 752 mmHg 53%
    10:00 +28°C° 0 mm 4 m/S 752 mmHg 44%
    11:00 +29°C° 0 mm 4 m/S 751 mmHg 41%
    12:00 +30°C° 0 mm 4 m/S 751 mmHg 38%
    13:00 +30°C° 0 mm 4 m/S 750 mmHg 35%
    14:00 +30°C° 0 mm 4 m/S 750 mmHg 35%
    15:00 +30°C° 0 mm 4 m/S 749 mmHg 35%
    16:00 +30°C° 0 mm 4 m/S 749 mmHg 35%
    17:00 +29°C° 0 mm 3 m/S 749 mmHg 40%
    18:00 +28°C° 0 mm 3 m/S 749 mmHg 45%
    19:00 +26°C° 0 mm 3 m/S 749 mmHg 50%
    20:00 +25°C° 0 mm 2 m/S 749 mmHg 55%
    21:00 +23°C° 0 mm 2 m/S 749 mmHg 60%
    22:00 +21°C° 0 mm 2 m/S 749 mmHg 65%
    23:00 +20°C° 0 mm 2 m/S 749 mmHg 69%

    27 Juli, Samstag

    Zeit Temperatur Niederschläge Wind Luftdruck Luftfeuchtigkeit
    00:00 +19°C° 0 mm 2 m/S 749 mmHg 74%
    01:00 +19°C° 0 mm 2 m/S 748 mmHg 78%
    02:00 +18°C° 0 mm 2 m/S 748 mmHg 80%
    03:00 +18°C° 0 mm 2 m/S 748 mmHg 82%
    04:00 +17°C° 0 mm 2 m/S 748 mmHg 84%
    05:00 +18°C° 0 mm 2 m/S 748 mmHg 79%
    06:00 +19°C° 0 mm 3 m/S 748 mmHg 75%
    07:00 +21°C° 0 mm 3 m/S 748 mmHg 71%
    08:00 +22°C° 0 mm 4 m/S 748 mmHg 64%
    09:00 +25°C° 0 mm 4 m/S 748 mmHg 58%
    10:00 +27°C° 0 mm 5 m/S 748 mmHg 52%
    11:00 +27°C° 0 mm 5 m/S 748 mmHg 49%
    12:00 +28°C° 0 mm 5 m/S 747 mmHg 47%
    13:00 +29°C° 0 mm 5 m/S 747 mmHg 44%
    14:00 +29°C° 0 mm 5 m/S 746 mmHg 44%
    15:00 +29°C° 0 mm 5 m/S 746 mmHg 43%
    16:00 +29°C° 0 mm 5 m/S 746 mmHg 43%
    17:00 +28°C° 0 mm 5 m/S 746 mmHg 47%
    18:00 +27°C° 0 mm 4 m/S 746 mmHg 51%
    19:00 +26°C° 0 mm 3 m/S 745 mmHg 55%
    20:00 +25°C° 0 mm 3 m/S 746 mmHg 59%
    21:00 +24°C° 0 mm 3 m/S 746 mmHg 62%
    22:00 +21°C° 0 mm 3 m/S 746 mmHg 66%
    23:00 +21°C° 0 mm 3 m/S 746 mmHg 69%

    28 Juli, Sonntag

    Zeit Temperatur Niederschläge Wind Luftdruck Luftfeuchtigkeit
    00:00 +20°C° 0 mm 3 m/S 746 mmHg 73%
    01:00 +19°C° 0 mm 2 m/S 746 mmHg 77%
    02:00 +19°C° 0 mm 2 m/S 746 mmHg 80%
    03:00 +19°C° 0 mm 2 m/S 746 mmHg 84%
    04:00 +18°C° 0 mm 2 m/S 746 mmHg 87%
    05:00 +20°C° 0 mm 3 m/S 746 mmHg 84%
    06:00 +21°C° 0 mm 4 m/S 746 mmHg 80%
    07:00 +22°C° 0 mm 4 m/S 746 mmHg 76%
    08:00 +25°C° 0 mm 4 m/S 747 mmHg 69%
    09:00 +27°C° 0 mm 5 m/S 747 mmHg 62%
    10:00 +28°C° 0 mm 5 m/S 747 mmHg 55%
    11:00 +29°C° 0 mm 5 m/S 747 mmHg 50%
    12:00 +30°C° 0 mm 5 m/S 746 mmHg 46%
    13:00 +32°C° 0 mm 5 m/S 746 mmHg 42%
    14:00 +32°C° 0 mm 5 m/S 746 mmHg 42%
    15:00 +32°C° 0 mm 5 m/S 746 mmHg 42%
    16:00 +33°C° 0 mm 5 m/S 746 mmHg 42%
    17:00 +30°C° 0 mm 4 m/S 746 mmHg 46%
    18:00 +29°C° 0 mm 4 m/S 746 mmHg 50%
    19:00 +28°C° 0 mm 3 m/S 746 mmHg 55%
    20:00 +27°C° 0 mm 2 m/S 747 mmHg 59%
    21:00 +25°C° 0 mm 2 m/S 747 mmHg 64%
    22:00 +24°C° 0 mm 2 m/S 748 mmHg 68%
    23:00 +23°C° 0 mm 2 m/S 748 mmHg 71%

    29 Juli, Montag

    Zeit Temperatur Niederschläge Wind Luftdruck Luftfeuchtigkeit
    00:00 +21°C° 0 mm 2 m/S 748 mmHg 73%
    01:00 +22°C° 0 mm 1 m/S 749 mmHg 76%
    02:00 +21°C° 0 mm 1 m/S 749 mmHg 79%
    03:00 +21°C° 0 mm 1 m/S 749 mmHg 82%
    04:00 +20°C° 0 mm 1 m/S 749 mmHg 85%
    05:00 +22°C° 0 mm 1 m/S 749 mmHg 80%
    06:00 +23°C° 0 mm 1 m/S 749 mmHg 76%
    07:00 +25°C° 0 mm 1 m/S 750 mmHg 72%
    08:00 +26°C° 0 mm 2 m/S 750 mmHg 65%
    09:00 +28°C° 0 mm 2 m/S 750 mmHg 59%
    10:00 +30°C° 0 mm 3 m/S 750 mmHg 52%
    11:00 +31°C° 0 mm 3 m/S 750 mmHg 49%
    12:00 +33°C° 0 mm 3 m/S 750 mmHg 45%
    13:00 +34°C° 0 mm 3 m/S 750 mmHg 41%
    14:00 +33°C° 0 mm 3 m/S 750 mmHg 42%
    15:00 +33°C° 0 mm 3 m/S 750 mmHg 42%
    16:00 +33°C° 0 mm 3 m/S 750 mmHg 43%
    17:00 +31°C° 0 mm 3 m/S 750 mmHg 47%
    18:00 +30°C° 0 mm 2 m/S 750 mmHg 50%
    19:00 +29°C° 0 mm 2 m/S 750 mmHg 54%
    20:00 +28°C° 0 mm 2 m/S 750 mmHg 57%
    21:00 +27°C° 0 mm 3 m/S 751 mmHg 59%
    22:00 +25°C° 0 mm 3 m/S 751 mmHg 61%
    23:00 +24°C° 0 mm 3 m/S 751 mmHg 61%
    Mehr zeigen